Time,TemperatureF,DewpointF,PressureIn,WindDirection,WindDirectionDegrees,WindSpeedMPH,WindSpeedGustMPH,Humidity,HourlyPrecipIn,Conditions,Clouds,dailyrainin,SolarRadiationWatts/m^2,SoftwareType,DateUTC
2013-03-31 00:00:00,41.8,23.6,30.07,North,360,0.0,0.0,48,0.00,,,0.00,0.00,VWS V14.01,2013-03-31 04:00:00,
2013-03-31 00:03:00,41.7,23.5,30.07,North,360,0.0,0.0,48,0.00,,,0.00,0.00,VWS V14.01,2013-03-31 04:03:00,
2013-03-31 00:08:00,41.6,23.4,30.07,North,5,0.0,0.0,48,0.00,,,0.00,0.00,VWS V14.01,2013-03-31 04:08:00,
2013-03-31 00:13:00,41.5,23.3,30.07,North,5,0.0,0.0,48,0.00,,,0.00,0.00,VWS V14.01,2013-03-31 04:13:00,
2013-03-31 00:18:00,41.4,23.7,30.07,North,360,0.0,0.0,49,0.00,,,0.00,0.00,VWS V14.01,2013-03-31 04:18:00,
2013-03-31 00:23:00,41.3,24.1,30.07,North,5,0.0,0.0,50,0.00,,,0.00,0.00,VWS V14.01,2013-03-31 04:23:00,
2013-03-31 00:28:00,41.3,24.1,30.07,North,360,0.0,0.0,50,0.00,,,0.00,0.00,VWS V14.01,2013-03-31 04:28:00,
2013-03-31 00:33:00,41.4,24.6,30.07,SSE,150,5.0,6.0,51,0.00,,,0.00,0.00,VWS V14.01,2013-03-31 04:33:00,
2013-03-31 00:38:00,42.0,25.7,30.07,South,169,2.0,3.0,52,0.00,,,0.00,0.00,VWS V14.01,2013-03-31 04:38:00,
2013-03-31 00:43:00,42.7,26.3,30.07,SSE,160,0.0,5.0,52,0.00,,,0.00,0.00,VWS V14.01,2013-03-31 04:43:00,
2013-03-31 00:48:00,43.4,26.5,30.07,SSE,163,0.0,4.0,51,0.00,,,0.00,0.00,VWS V14.01,2013-03-31 04:48:00,
2013-03-31 00:53:00,44.0,26.6,30.07,South,172,0.0,3.0,50,0.00,,,0.00,0.00,VWS V14.01,2013-03-31 04:53:00,
2013-03-31 00:58:00,44.4,27.4,30.07,South,172,0.0,0.0,51,0.00,,,0.00,0.00,VWS V14.01,2013-03-31 04:58:00,
2013-03-31 01:04:00,44.5,27.0,30.07,South,172,0.0,0.0,50,0.00,,,0.00,0.00,VWS V14.01,2013-03-31 05:04:00,
2013-03-31 01:09:00,44.6,27.1,30.06,South,172,0.0,0.0,50,0.00,,,0.00,0.00,VWS V14.01,2013-03-31 05:09:00,
2013-03-31 01:14:00,44.7,27.2,30.07,South,172,0.0,0.0,50,0.00,,,0.00,0.00,VWS V14.01,2013-03-31 05:14:00,
2013-03-31 01:19:00,44.7,27.2,30.06,South,183,0.0,5.0,50,0.00,,,0.00,0.00,VWS V14.01,2013-03-31 05:19:00,
2013-03-31 01:24:00,44.9,28.4,30.06,SSW,192,0.0,3.0,52,0.00,,,0.00,0.00,VWS V14.01,2013-03-31 05:24:00,
2013-03-31 01:29:00,45.1,28.1,30.06,South,188,1.0,5.0,51,0.00,,,0.00,0.00,VWS V14.01,2013-03-31 05:29:00,
2013-03-31 01:34:00,45.5,28.4,30.06,South,172,0.0,4.0,51,0.00,,,0.00,0.00,VWS V14.01,2013-03-31 05:34:00,
2013-03-31 01:39:00,45.8,28.2,30.06,South,172,1.0,6.0,50,0.00,,,0.00,0.00,VWS V14.01,2013-03-31 05:39:00,
2013-03-31 01:44:00,46.1,28.5,30.06,South,190,0.0,6.0,50,0.00,,,0.00,0.00,VWS V14.01,2013-03-31 05:44:00,
2013-03-31 01:49:00,46.2,28.6,30.06,SSW,192,0.0,6.0,50,0.00,,,0.00,0.00,VWS V14.01,2013-03-31 05:49:00,
2013-03-31 01:54:00,46.2,28.6,30.05,South,182,2.0,4.0,50,0.00,,,0.00,0.00,VWS V14.01,2013-03-31 05:54:00,
2013-03-31 01:59:00,46.1,28.5,30.05,South,175,4.0,5.0,50,0.00,,,0.00,0.00,VWS V14.01,2013-03-31 05:59:00,
2013-03-31 02:04:00,46.1,29.0,30.06,SSW,201,3.0,4.0,51,0.00,,,0.00,0.00,VWS V14.01,2013-03-31 06:04:00,
2013-03-31 02:09:00,46.1,29.0,30.05,SSW,201,0.0,6.0,51,0.00,,,0.00,0.00,VWS V14.01,2013-03-31 06:09:00,
2013-03-31 02:14:00,46.0,29.4,30.05,SSW,196,0.0,4.0,52,0.00,,,0.00,0.00,VWS V14.01,2013-03-31 06:14:00,
2013-03-31 02:19:00,46.0,29.4,30.05,SSW,195,2.0,4.0,52,0.00,,,0.00,0.00,VWS V14.01,2013-03-31 06:19:00,
2013-03-31 02:24:00,45.9,29.3,30.05,South,177,3.0,6.0,52,0.00,,,0.00,0.00,VWS V14.01,2013-03-31 06:24:00,
2013-03-31 02:29:00,46.0,29.4,30.05,South,181,2.0,5.0,52,0.00,,,0.00,0.00,VWS V14.01,2013-03-31 06:29:00,
2013-03-31 02:35:00,46.0,29.4,30.04,South,171,2.0,6.0,52,0.00,,,0.00,0.00,VWS V14.01,2013-03-31 06:35:00,
2013-03-31 02:40:00,46.1,29.9,30.04,SSE,168,0.0,4.0,53,0.00,,,0.00,0.00,VWS V14.01,2013-03-31 06:40:00,
2013-03-31 02:45:00,46.2,30.0,30.04,South,172,0.0,2.0,53,0.00,,,0.00,0.00,VWS V14.01,2013-03-31 06:45:00,
2013-03-31 02:50:00,46.3,29.6,30.03,South,188,1.0,7.0,52,0.00,,,0.00,0.00,VWS V14.01,2013-03-31 06:50:00,
2013-03-31 02:55:00,46.4,30.2,30.03,South,177,1.0,5.0,53,0.00,,,0.00,0.00,VWS V14.01,2013-03-31 06:55:00,
2013-03-31 03:00:00,46.4,30.2,30.03,South,173,2.0,6.0,53,0.00,,,0.00,0.00,VWS V14.01,2013-03-31 07:00:00,
2013-03-31 03:05:00,46.5,30.8,30.03,SSE,156,4.0,6.0,54,0.00,,,0.00,0.00,VWS V14.01,2013-03-31 07:05:00,
2013-03-31 03:10:00,46.6,30.4,30.03,SSE,163,2.0,8.0,53,0.00,,,0.00,0.00,VWS V14.01,2013-03-31 07:10:00,
2013-03-31 03:15:00,46.7,31.0,30.03,South,178,2.0,8.0,54,0.00,,,0.00,0.00,VWS V14.01,2013-03-31 07:15:00,
2013-03-31 03:20:00,46.7,30.5,30.02,SSE,163,1.0,3.0,53,0.00,,,0.00,0.00,VWS V14.01,2013-03-31 07:20:00,
2013-03-31 03:25:00,46.7,31.0,30.02,SSE,165,1.0,7.0,54,0.00,,,0.00,0.00,VWS V14.01,2013-03-31 07:25:00,
2013-03-31 03:30:00,46.6,30.9,30.02,SE,145,6.0,6.0,54,0.00,,,0.00,0.00,VWS V14.01,2013-03-31 07:30:00,
2013-03-31 03:35:00,46.6,30.9,30.01,South,190,3.0,6.0,54,0.00,,,0.00,0.00,VWS V14.01,2013-03-31 07:35:00,
2013-03-31 03:40:00,46.5,31.2,30.01,SSE,165,2.0,4.0,55,0.00,,,0.00,0.00,VWS V14.01,2013-03-31 07:40:00,
2013-03-31 03:46:00,46.4,31.1,30.00,SSE,165,2.0,4.0,55,0.00,,,0.00,0.00,VWS V14.01,2013-03-31 07:46:00,
2013-03-31 03:51:00,46.4,31.1,30.00,South,177,4.0,7.0,55,0.00,,,0.00,0.00,VWS V14.01,2013-03-31 07:51:00,
2013-03-31 03:56:00,46.4,31.6,30.00,South,182,4.0,11.0,56,0.00,,,0.00,0.00,VWS V14.01,2013-03-31 07:56:00,
2013-03-31 04:01:00,46.4,31.6,30.00,South,173,1.0,8.0,56,0.00,,,0.00,0.00,VWS V14.01,2013-03-31 08:01:00,
2013-03-31 04:07:00,46.4,31.6,30.00,South,183,4.0,4.0,56,0.00,,,0.00,0.00,VWS V14.01,2013-03-31 08:07:00,
2013-03-31 04:12:00,46.3,31.5,29.99,South,182,5.0,10.0,56,0.00,,,0.00,0.00,VWS V14.01,2013-03-31 08:12:00,
2013-03-31 04:17:00,46.3,31.5,29.99,SSE,167,2.0,6.0,56,0.00,,,0.00,0.00,VWS V14.01,2013-03-31 08:17:00,
2013-03-31 04:22:00,46.1,31.7,29.99,SSW,210,3.0,5.0,57,0.00,,,0.00,0.00,VWS V14.01,2013-03-31 08:22:00,
2013-03-31 04:27:00,46.0,31.6,29.99,SSW,207,0.0,3.0,57,0.00,,,0.00,0.00,VWS V14.01,2013-03-31 08:27:00,
2013-03-31 04:32:00,45.8,31.9,29.99,SSW,205,7.0,7.0,58,0.00,,,0.00,0.00,VWS V14.01,2013-03-31 08:32:00,
2013-03-31 04:37:00,45.6,31.7,29.99,SSW,200,3.0,5.0,58,0.00,,,0.00,0.00,VWS V14.01,2013-03-31 08:37:00,
2013-03-31 04:42:00,45.5,31.6,29.99,South,177,3.0,7.0,58,0.00,,,0.00,0.00,VWS V14.01,2013-03-31 08:42:00,
2013-03-31 04:47:00,45.4,31.5,29.99,SSE,149,3.0,5.0,58,0.00,,,0.00,0.00,VWS V14.01,2013-03-31 08:47:00,
2013-03-31 04:53:00,45.4,31.9,29.98,South,173,3.0,7.0,59,0.00,,,0.00,0.00,VWS V14.01,2013-03-31 08:53:00,
2013-03-31 04:58:00,45.3,31.8,29.98,SSE,167,1.0,5.0,59,0.00,,,0.00,0.00,VWS V14.01,2013-03-31 08:58:00,
2013-03-31 05:03:00,45.2,31.7,29.98,SSE,167,0.0,6.0,59,0.00,,,0.00,0.00,VWS V14.01,2013-03-31 09:03:00,
2013-03-31 05:08:00,45.1,31.6,29.98,SSE,164,3.0,6.0,59,0.00,,,0.00,0.00,VWS V14.01,2013-03-31 09:08:00,
2013-03-31 05:13:00,45.0,32.0,29.98,South,182,1.0,7.0,60,0.00,,,0.00,0.00,VWS V14.01,2013-03-31 09:13:00,
2013-03-31 05:18:00,45.0,32.0,29.97,SSE,166,4.0,8.0,60,0.00,,,0.00,0.00,VWS V14.01,2013-03-31 09:18:00,
2013-03-31 05:23:00,45.0,32.0,29.97,South,176,4.0,6.0,60,0.00,,,0.00,0.00,VWS V14.01,2013-03-31 09:23:00,
2013-03-31 05:29:00,45.0,32.0,29.97,South,182,2.0,7.0,60,0.00,,,0.00,0.00,VWS V14.01,2013-03-31 09:29:00,
2013-03-31 05:34:00,45.0,32.0,29.97,South,184,2.0,4.0,60,0.00,,,0.00,0.00,VWS V14.01,2013-03-31 09:34:00,
2013-03-31 05:39:00,45.0,32.0,29.97,SSE,156,5.0,6.0,60,0.00,,,0.00,0.00,VWS V14.01,2013-03-31 09:39:00,
2013-03-31 05:44:00,45.0,32.0,29.96,South,176,0.0,5.0,60,0.00,,,0.00,0.00,VWS V14.01,2013-03-31 09:44:00,
2013-03-31 05:49:00,45.0,32.0,29.96,South,182,3.0,6.0,60,0.00,,,0.00,0.00,VWS V14.01,2013-03-31 09:49:00,
2013-03-31 05:54:00,45.0,32.4,29.96,South,179,0.0,4.0,61,0.00,,,0.00,0.00,VWS V14.01,2013-03-31 09:54:00,
2013-03-31 05:59:00,44.9,31.9,29.96,South,176,1.0,4.0,60,0.00,,,0.00,0.00,VWS V14.01,2013-03-31 09:59:00,
2013-03-31 06:04:00,44.9,32.3,29.96,SSE,156,4.0,6.0,61,0.00,,,0.00,0.00,VWS V14.01,2013-03-31 10:04:00,
2013-03-31 06:09:00,44.8,32.2,29.96,South,175,4.0,5.0,61,0.00,,,0.00,0.00,VWS V14.01,2013-03-31 10:09:00,
2013-03-31 06:14:00,44.8,32.2,29.96,South,176,2.0,7.0,61,0.00,,,0.00,0.00,VWS V14.01,2013-03-31 10:14:00,
2013-03-31 06:19:00,44.7,32.5,29.96,SSE,166,0.0,3.0,62,0.00,,,0.00,0.00,VWS V14.01,2013-03-31 10:19:00,
2013-03-31 06:24:00,44.7,32.5,29.95,SSE,155,0.0,3.0,62,0.00,,,0.00,0.00,VWS V14.01,2013-03-31 10:24:00,
2013-03-31 06:29:00,44.6,32.4,29.95,SSE,157,0.0,2.0,62,0.00,,,0.00,0.00,VWS V14.01,2013-03-31 10:29:00,
2013-03-31 06:35:00,44.5,32.3,29.95,SE,136,0.0,4.0,62,0.00,,,0.00,0.00,VWS V14.01,2013-03-31 10:35:00,
2013-03-31 06:40:00,44.4,32.6,29.95,SSE,150,0.0,2.0,63,0.00,,,0.00,0.00,VWS V14.01,2013-03-31 10:40:00,
2013-03-31 06:45:00,44.3,32.5,29.95,South,171,0.0,8.0,63,0.00,,,0.00,0.00,VWS V14.01,2013-03-31 10:45:00,
2013-03-31 06:50:00,44.3,32.5,29.95,SE,144,6.0,9.0,63,0.00,,,0.00,0.00,VWS V14.01,2013-03-31 10:50:00,
2013-03-31 06:55:00,44.4,32.6,29.95,South,186,5.0,9.0,63,0.00,,,0.00,0.00,VWS V14.01,2013-03-31 10:55:00,
2013-03-31 07:00:00,44.6,32.8,29.95,South,184,5.0,8.0,63,0.00,,,0.00,0.00,VWS V14.01,2013-03-31 11:00:00,
2013-03-31 07:05:00,44.6,32.8,29.95,South,173,1.0,7.0,63,0.00,,,0.00,0.00,VWS V14.01,2013-03-31 11:05:00,
2013-03-31 07:10:00,44.7,32.9,29.95,SSE,168,2.0,6.0,63,0.00,,,0.00,5.00,VWS V14.01,2013-03-31 11:10:00,
2013-03-31 07:15:00,44.7,32.9,29.95,South,180,0.0,6.0,63,0.00,,,0.00,9.00,VWS V14.01,2013-03-31 11:15:00,
2013-03-31 07:20:00,44.7,32.9,29.95,SSE,163,2.0,7.0,63,0.00,,,0.00,12.00,VWS V14.01,2013-03-31 11:20:00,
2013-03-31 07:25:00,44.6,33.2,29.95,SSE,163,2.0,4.0,64,0.00,,,0.00,16.00,VWS V14.01,2013-03-31 11:25:00,
2013-03-31 07:30:00,44.6,33.6,29.95,SSE,165,0.0,5.0,65,0.00,,,0.00,19.00,VWS V14.01,2013-03-31 11:30:00,
2013-03-31 07:35:00,44.5,33.5,29.95,SSE,161,0.0,3.0,65,0.00,,,0.00,26.00,VWS V14.01,2013-03-31 11:35:00,
2013-03-31 07:40:00,44.4,33.4,29.95,SSE,147,0.0,0.0,65,0.00,,,0.00,32.00,VWS V14.01,2013-03-31 11:40:00,
2013-03-31 07:45:00,44.3,33.3,29.94,SSE,163,0.0,0.0,65,0.00,,,0.00,35.00,VWS V14.01,2013-03-31 11:45:00,
2013-03-31 07:50:00,44.3,33.3,29.94,South,184,0.0,0.0,65,0.00,,,0.00,33.00,VWS V14.01,2013-03-31 11:50:00,
2013-03-31 07:56:00,44.4,33.4,29.94,SSE,150,2.0,4.0,65,0.00,,,0.00,33.00,VWS V14.01,2013-03-31 11:56:00,
2013-03-31 08:01:00,44.5,33.9,29.95,SSW,200,2.0,4.0,66,0.00,,,0.00,35.00,VWS V14.01,2013-03-31 12:01:00,
2013-03-31 08:06:00,44.6,33.6,29.95,South,179,3.0,4.0,65,0.00,,,0.00,37.00,VWS V14.01,2013-03-31 12:06:00,
2013-03-31 08:11:00,44.6,34.0,29.95,South,187,0.0,7.0,66,0.00,,,0.00,47.00,VWS V14.01,2013-03-31 12:11:00,
2013-03-31 08:16:00,44.7,34.0,29.95,SSW,202,5.0,13.0,66,0.00,,,0.00,49.00,VWS V14.01,2013-03-31 12:16:00,
2013-03-31 08:22:00,44.9,33.9,29.95,South,182,8.0,9.0,65,0.00,,,0.00,56.00,VWS V14.01,2013-03-31 12:22:00,
2013-03-31 08:27:00,45.0,34.0,29.94,SSW,199,5.0,8.0,65,0.00,,,0.00,65.00,VWS V14.01,2013-03-31 12:27:00,
2013-03-31 08:32:00,45.0,34.3,29.94,SSW,192,3.0,8.0,66,0.00,,,0.00,83.00,VWS V14.01,2013-03-31 12:32:00,
2013-03-31 08:37:00,45.2,34.2,29.94,SSE,157,5.0,7.0,65,0.00,,,0.00,98.00,VWS V14.01,2013-03-31 12:37:00,
2013-03-31 08:42:00,45.3,34.2,29.93,East,99,1.0,6.0,65,0.00,,,0.00,100.00,VWS V14.01,2013-03-31 12:42:00,
2013-03-31 08:47:00,45.5,34.8,29.94,South,169,2.0,5.0,66,0.00,,,0.00,100.00,VWS V14.01,2013-03-31 12:47:00,
2013-03-31 08:52:00,45.7,35.0,29.93,SSE,157,0.0,3.0,66,0.00,,,0.00,113.00,VWS V14.01,2013-03-31 12:52:00,
2013-03-31 08:58:00,45.9,35.2,29.93,South,169,4.0,4.0,66,0.00,,,0.00,130.00,VWS V14.01,2013-03-31 12:58:00,
2013-03-31 09:03:00,46.1,35.0,29.93,SSE,166,0.0,4.0,65,0.00,,,0.00,134.00,VWS V14.01,2013-03-31 13:03:00,
2013-03-31 09:08:00,46.3,35.2,29.93,SSW,192,3.0,6.0,65,0.00,,,0.00,141.00,VWS V14.01,2013-03-31 13:08:00,
2013-03-31 09:13:00,46.4,35.3,29.93,South,176,0.0,8.0,65,0.00,,,0.00,120.00,VWS V14.01,2013-03-31 13:13:00,
2013-03-31 09:18:00,46.5,35.4,29.93,South,173,0.0,5.0,65,0.00,,,0.00,105.00,VWS V14.01,2013-03-31 13:18:00,
2013-03-31 09:23:00,46.6,35.5,29.93,South,176,0.0,3.0,65,0.00,,,0.00,120.00,VWS V14.01,2013-03-31 13:23:00,
2013-03-31 09:28:00,46.7,35.6,29.93,SSW,205,1.0,4.0,65,0.00,,,0.00,111.00,VWS V14.01,2013-03-31 13:28:00,
2013-03-31 09:33:00,46.8,35.7,29.93,South,186,3.0,5.0,65,0.00,,,0.00,86.00,VWS V14.01,2013-03-31 13:33:00,
2013-03-31 09:38:00,46.8,35.7,29.93,SSW,207,6.0,6.0,65,0.00,,,0.00,86.00,VWS V14.01,2013-03-31 13:38:00,
2013-03-31 09:44:00,46.8,36.0,29.92,South,190,3.0,5.0,66,0.00,,,0.00,134.00,VWS V14.01,2013-03-31 13:44:00,
2013-03-31 09:49:00,46.7,36.0,29.92,SSW,199,4.0,5.0,66,0.00,,,0.00,93.00,VWS V14.01,2013-03-31 13:49:00,
2013-03-31 09:54:00,46.6,36.2,29.92,SSW,200,3.0,5.0,67,0.00,,,0.00,62.00,VWS V14.01,2013-03-31 13:54:00,
2013-03-31 09:59:00,46.5,36.9,29.92,SSW,200,0.0,6.0,69,0.00,,,0.00,100.00,VWS V14.01,2013-03-31 13:59:00,
2013-03-31 10:04:00,46.5,38.0,29.92,SSW,198,0.0,1.0,72,0.00,,,0.00,105.00,VWS V14.01,2013-03-31 14:04:00,
2013-03-31 10:09:00,46.5,38.3,29.91,SE,134,0.0,0.0,73,0.00,,,0.00,86.00,VWS V14.01,2013-03-31 14:09:00,
2013-03-31 10:14:00,46.3,38.1,29.91,SE,140,0.0,3.0,73,0.00,,,0.00,72.00,VWS V14.01,2013-03-31 14:14:00,
2013-03-31 10:20:00,46.2,38.4,29.91,SE,135,0.0,4.0,74,0.00,,,0.00,97.00,VWS V14.01,2013-03-31 14:20:00,
2013-03-31 10:25:00,46.1,39.0,29.90,SE,145,0.0,1.0,76,0.00,,,0.00,104.00,VWS V14.01,2013-03-31 14:25:00,
2013-03-31 10:30:00,46.0,39.2,29.90,SE,144,0.0,0.0,77,0.00,,,0.00,142.00,VWS V14.01,2013-03-31 14:30:00,
2013-03-31 10:35:00,45.8,39.3,29.90,SE,144,3.0,6.0,78,0.00,,,0.00,148.00,VWS V14.01,2013-03-31 14:35:00,
2013-03-31 10:40:00,45.4,39.3,29.90,SE,134,0.0,4.0,79,0.01,,,0.01,72.00,VWS V14.01,2013-03-31 14:40:00,
2013-03-31 10:45:00,45.1,39.3,29.89,SE,132,1.0,1.0,80,0.01,,,0.01,158.00,VWS V14.01,2013-03-31 14:45:00,
2013-03-31 10:50:00,45.0,39.5,29.89,SE,140,0.0,5.0,81,0.01,,,0.01,137.00,VWS V14.01,2013-03-31 14:50:00,
2013-03-31 10:55:00,44.8,39.7,29.89,SE,139,3.0,4.0,82,0.01,,,0.01,142.00,VWS V14.01,2013-03-31 14:55:00,
2013-03-31 11:00:00,44.7,39.9,29.89,SE,133,1.0,4.0,83,0.01,,,0.01,105.00,VWS V14.01,2013-03-31 15:00:00,
2013-03-31 11:05:00,44.5,39.7,29.89,SE,144,0.0,0.0,83,0.01,,,0.01,74.00,VWS V14.01,2013-03-31 15:05:00,
2013-03-31 11:10:00,44.5,40.0,29.89,SSE,153,3.0,3.0,84,0.02,,,0.02,97.00,VWS V14.01,2013-03-31 15:10:00,
2013-03-31 11:15:00,44.4,39.9,29.89,SSE,166,0.0,1.0,84,0.02,,,0.02,109.00,VWS V14.01,2013-03-31 15:15:00,
2013-03-31 11:20:00,44.3,39.8,29.89,SSE,161,0.0,0.0,84,0.02,,,0.02,88.00,VWS V14.01,2013-03-31 15:20:00,
2013-03-31 11:25:00,44.2,39.7,29.89,SSE,150,0.0,0.0,84,0.02,,,0.02,58.00,VWS V14.01,2013-03-31 15:25:00,
2013-03-31 11:31:00,44.1,39.6,29.89,South,169,0.0,1.0,84,0.02,,,0.02,84.00,VWS V14.01,2013-03-31 15:31:00,
2013-03-31 11:36:00,44.2,39.7,29.89,South,170,0.0,0.0,84,0.02,,,0.02,84.00,VWS V14.01,2013-03-31 15:36:00,
2013-03-31 11:41:00,44.1,39.6,29.89,SSW,200,0.0,0.0,84,0.02,,,0.03,54.00,VWS V14.01,2013-03-31 15:41:00,
2013-03-31 11:46:00,44.1,39.6,29.89,SSW,207,1.0,2.0,84,0.02,,,0.03,79.00,VWS V14.01,2013-03-31 15:46:00,
2013-03-31 11:51:00,44.1,39.9,29.88,South,184,0.0,2.0,85,0.03,,,0.04,139.00,VWS V14.01,2013-03-31 15:51:00,
2013-03-31 11:56:00,44.2,40.0,29.88,South,178,3.0,3.0,85,0.03,,,0.04,88.00,VWS V14.01,2013-03-31 15:56:00,
2013-03-31 12:02:00,44.2,40.3,29.88,SSW,203,5.0,5.0,86,0.04,,,0.05,83.00,VWS V14.01,2013-03-31 16:02:00,
2013-03-31 12:07:00,44.1,40.2,29.87,South,184,3.0,3.0,86,0.05,,,0.06,172.00,VWS V14.01,2013-03-31 16:07:00,
2013-03-31 12:12:00,44.2,40.6,29.87,SSW,192,3.0,4.0,87,0.05,,,0.07,153.00,VWS V14.01,2013-03-31 16:12:00,
2013-03-31 12:17:00,44.3,41.0,29.87,South,182,0.0,4.0,88,0.06,,,0.08,111.00,VWS V14.01,2013-03-31 16:17:00,
2013-03-31 12:22:00,44.3,41.0,29.87,South,184,0.0,2.0,88,0.07,,,0.09,162.00,VWS V14.01,2013-03-31 16:22:00,
2013-03-31 12:27:00,44.3,41.3,29.86,SSW,192,0.0,2.0,89,0.08,,,0.10,83.00,VWS V14.01,2013-03-31 16:27:00,
2013-03-31 12:32:00,44.4,41.4,29.86,South,169,0.0,3.0,89,0.09,,,0.11,130.00,VWS V14.01,2013-03-31 16:32:00,
2013-03-31 12:37:00,44.6,41.8,29.85,South,169,0.0,0.0,90,0.09,,,0.11,127.00,VWS V14.01,2013-03-31 16:37:00,
2013-03-31 12:43:00,44.7,42.0,29.85,SSE,148,0.0,2.0,90,0.09,,,0.12,155.00,VWS V14.01,2013-03-31 16:43:00,
2013-03-31 12:48:00,44.9,42.2,29.85,SSE,161,0.0,3.0,90,0.10,,,0.13,97.00,VWS V14.01,2013-03-31 16:48:00,
2013-03-31 12:53:00,45.0,42.5,29.84,SSE,161,0.0,0.0,91,0.09,,,0.13,70.00,VWS V14.01,2013-03-31 16:53:00,
2013-03-31 12:58:00,45.1,42.6,29.84,SSE,161,0.0,0.0,91,0.10,,,0.14,134.00,VWS V14.01,2013-03-31 16:58:00,
2013-03-31 13:03:00,45.2,42.7,29.84,SSE,161,0.0,0.0,91,0.10,,,0.15,174.00,VWS V14.01,2013-03-31 17:03:00,
2013-03-31 13:08:00,45.5,43.3,29.83,SSE,161,0.0,0.0,92,0.10,,,0.16,125.00,VWS V14.01,2013-03-31 17:08:00,
2013-03-31 13:13:00,45.6,43.4,29.82,SSE,161,3.0,6.0,92,0.10,,,0.17,146.00,VWS V14.01,2013-03-31 17:13:00,
2013-03-31 13:18:00,45.5,43.3,29.82,SSE,155,0.0,5.0,92,0.09,,,0.17,146.00,VWS V14.01,2013-03-31 17:18:00,
2013-03-31 13:24:00,45.5,43.0,29.82,SSE,159,0.0,3.0,91,0.08,,,0.17,63.00,VWS V14.01,2013-03-31 17:24:00,
2013-03-31 13:29:00,45.5,43.3,29.82,SSE,161,0.0,2.0,92,0.07,,,0.17,51.00,VWS V14.01,2013-03-31 17:29:00,
2013-03-31 13:34:00,45.5,43.3,29.81,SSE,161,0.0,0.0,92,0.07,,,0.17,72.00,VWS V14.01,2013-03-31 17:34:00,
2013-03-31 13:39:00,45.5,43.3,29.81,SSE,163,0.0,3.0,92,0.06,,,0.17,77.00,VWS V14.01,2013-03-31 17:39:00,
2013-03-31 13:44:00,45.5,43.3,29.80,SSE,168,0.0,0.0,92,0.06,,,0.17,91.00,VWS V14.01,2013-03-31 17:44:00,
2013-03-31 13:49:00,45.6,43.4,29.80,SSE,168,0.0,0.0,92,0.05,,,0.17,63.00,VWS V14.01,2013-03-31 17:49:00,
2013-03-31 13:54:00,45.6,43.4,29.80,SSE,168,0.0,0.0,92,0.04,,,0.17,90.00,VWS V14.01,2013-03-31 17:54:00,
2013-03-31 13:59:00,45.6,43.4,29.79,SSE,161,1.0,2.0,92,0.04,,,0.17,67.00,VWS V14.01,2013-03-31 17:59:00,
2013-03-31 14:04:00,45.6,43.4,29.79,SSE,161,0.0,1.0,92,0.03,,,0.17,63.00,VWS V14.01,2013-03-31 18:04:00,
2013-03-31 14:09:00,45.5,43.3,29.79,SSE,156,0.0,0.0,92,0.02,,,0.17,54.00,VWS V14.01,2013-03-31 18:09:00,
2013-03-31 14:14:00,45.4,43.2,29.79,SSE,156,0.0,0.0,92,0.01,,,0.17,60.00,VWS V14.01,2013-03-31 18:14:00,
2013-03-31 14:19:00,45.5,43.3,29.79,SSE,156,0.0,0.0,92,0.01,,,0.18,51.00,VWS V14.01,2013-03-31 18:19:00,
2013-03-31 14:25:00,45.5,43.3,29.78,SSE,156,0.0,0.0,92,0.01,,,0.18,39.00,VWS V14.01,2013-03-31 18:25:00,
2013-03-31 14:30:00,45.5,43.3,29.78,SSE,156,0.0,0.0,92,0.01,,,0.18,33.00,VWS V14.01,2013-03-31 18:30:00,
2013-03-31 14:35:00,45.6,43.4,29.78,SSE,156,0.0,0.0,92,0.01,,,0.18,46.00,VWS V14.01,2013-03-31 18:35:00,
2013-03-31 14:40:00,45.6,43.4,29.77,SSE,156,0.0,0.0,92,0.01,,,0.18,74.00,VWS V14.01,2013-03-31 18:40:00,
2013-03-31 14:45:00,45.6,43.4,29.77,SSE,156,0.0,0.0,92,0.01,,,0.18,56.00,VWS V14.01,2013-03-31 18:45:00,
2013-03-31 14:50:00,45.7,43.5,29.76,SSE,156,0.0,0.0,92,0.02,,,0.19,44.00,VWS V14.01,2013-03-31 18:50:00,
2013-03-31 14:55:00,45.7,43.5,29.76,SSE,156,0.0,0.0,92,0.02,,,0.19,54.00,VWS V14.01,2013-03-31 18:55:00,
2013-03-31 15:00:00,45.7,43.5,29.76,SSE,156,0.0,0.0,92,0.02,,,0.19,40.00,VWS V14.01,2013-03-31 19:00:00,
2013-03-31 15:05:00,45.6,43.4,29.75,SSE,156,0.0,0.0,92,0.02,,,0.19,33.00,VWS V14.01,2013-03-31 19:05:00,
2013-03-31 15:10:00,45.6,43.4,29.76,SSE,156,0.0,0.0,92,0.02,,,0.19,30.00,VWS V14.01,2013-03-31 19:10:00,
2013-03-31 15:15:00,45.6,43.7,29.76,SSE,156,0.0,0.0,93,0.02,,,0.19,30.00,VWS V14.01,2013-03-31 19:15:00,
2013-03-31 15:20:00,45.6,43.7,29.76,SSE,156,0.0,0.0,93,0.01,,,0.19,40.00,VWS V14.01,2013-03-31 19:20:00,
2013-03-31 15:25:00,45.6,43.7,29.76,SSE,156,0.0,0.0,93,0.01,,,0.19,26.00,VWS V14.01,2013-03-31 19:25:00,
2013-03-31 15:31:00,45.5,43.6,29.76,SSE,156,0.0,0.0,93,0.01,,,0.19,21.00,VWS V14.01,2013-03-31 19:31:00,
2013-03-31 15:36:00,45.4,43.5,29.76,SSE,156,0.0,0.0,93,0.01,,,0.19,44.00,VWS V14.01,2013-03-31 19:36:00,
2013-03-31 15:42:00,45.4,43.5,29.76,SSE,156,0.0,0.0,93,0.01,,,0.19,40.00,VWS V14.01,2013-03-31 19:42:00,
2013-03-31 15:47:00,45.4,43.5,29.76,NW,306,0.0,0.0,93,0.01,,,0.19,54.00,VWS V14.01,2013-03-31 19:47:00,
2013-03-31 15:52:00,45.4,43.5,29.76,NW,306,0.0,0.0,93,0.00,,,0.19,44.00,VWS V14.01,2013-03-31 19:52:00,
2013-03-31 15:57:00,45.4,43.5,29.76,NW,306,0.0,0.0,93,0.00,,,0.19,39.00,VWS V14.01,2013-03-31 19:57:00,
2013-03-31 16:03:00,45.4,43.8,29.76,NW,306,0.0,0.0,94,0.00,,,0.19,51.00,VWS V14.01,2013-03-31 20:03:00,
2013-03-31 16:08:00,45.4,43.8,29.75,NW,306,0.0,0.0,94,0.00,,,0.19,47.00,VWS V14.01,2013-03-31 20:08:00,
2013-03-31 16:13:00,45.4,43.8,29.75,NW,306,0.0,0.0,94,0.00,,,0.19,39.00,VWS V14.01,2013-03-31 20:13:00,
2013-03-31 16:18:00,45.4,43.8,29.75,NW,306,0.0,0.0,94,0.00,,,0.19,42.00,VWS V14.01,2013-03-31 20:18:00,
2013-03-31 16:23:00,45.5,43.9,29.74,NW,306,0.0,0.0,94,0.00,,,0.19,81.00,VWS V14.01,2013-03-31 20:23:00,
2013-03-31 16:28:00,45.5,43.9,29.74,NW,306,0.0,0.0,94,0.00,,,0.19,111.00,VWS V14.01,2013-03-31 20:28:00,
2013-03-31 16:33:00,45.6,44.0,29.74,NW,306,0.0,0.0,94,0.00,,,0.19,91.00,VWS V14.01,2013-03-31 20:33:00,
2013-03-31 16:38:00,45.7,44.3,29.73,NW,306,0.0,0.0,95,0.00,,,0.19,127.00,VWS V14.01,2013-03-31 20:38:00,
2013-03-31 16:44:00,45.9,44.5,29.73,NW,306,0.0,0.0,95,0.01,,,0.20,192.00,VWS V14.01,2013-03-31 20:44:00,
2013-03-31 16:49:00,46.2,44.8,29.73,NW,306,0.0,0.0,95,0.01,,,0.20,188.00,VWS V14.01,2013-03-31 20:49:00,
2013-03-31 16:54:00,46.4,45.0,29.73,SSW,211,0.0,2.0,95,0.01,,,0.20,163.00,VWS V14.01,2013-03-31 20:54:00,
2013-03-31 16:59:00,46.5,45.2,29.73,SSW,194,0.0,1.0,95,0.01,,,0.20,137.00,VWS V14.01,2013-03-31 20:59:00,
2013-03-31 17:04:00,46.7,45.3,29.74,SSW,194,0.0,0.0,95,0.01,,,0.20,120.00,VWS V14.01,2013-03-31 21:04:00,
2013-03-31 17:09:00,46.7,45.3,29.73,SSW,194,0.0,0.0,95,0.01,,,0.20,118.00,VWS V14.01,2013-03-31 21:09:00,
2013-03-31 17:14:00,46.9,45.5,29.73,SSW,194,0.0,0.0,95,0.01,,,0.20,97.00,VWS V14.01,2013-03-31 21:14:00,
2013-03-31 17:19:00,46.9,45.5,29.73,SSW,194,0.0,0.0,95,0.01,,,0.20,113.00,VWS V14.01,2013-03-31 21:19:00,
2013-03-31 17:24:00,47.0,45.7,29.74,SSW,194,0.0,0.0,95,0.01,,,0.20,93.00,VWS V14.01,2013-03-31 21:24:00,
2013-03-31 17:30:00,47.1,45.7,29.74,SSW,194,0.0,0.0,95,0.01,,,0.20,90.00,VWS V14.01,2013-03-31 21:30:00,
2013-03-31 17:35:00,47.2,45.8,29.74,SSW,194,0.0,0.0,95,0.01,,,0.20,74.00,VWS V14.01,2013-03-31 21:35:00,
2013-03-31 17:40:00,47.2,45.8,29.74,SSW,195,0.0,0.0,95,0.01,,,0.20,58.00,VWS V14.01,2013-03-31 21:40:00,
2013-03-31 17:45:00,47.2,45.8,29.74,SSW,195,0.0,0.0,95,0.01,,,0.20,69.00,VWS V14.01,2013-03-31 21:45:00,
2013-03-31 17:50:00,47.1,45.7,29.74,SSW,196,0.0,0.0,95,0.00,,,0.20,39.00,VWS V14.01,2013-03-31 21:50:00,
2013-03-31 17:55:00,47.1,45.7,29.73,SSW,196,0.0,0.0,95,0.00,,,0.20,46.00,VWS V14.01,2013-03-31 21:55:00,
2013-03-31 18:00:00,47.1,45.7,29.73,SSW,195,0.0,0.0,95,0.00,,,0.20,46.00,VWS V14.01,2013-03-31 22:00:00,
2013-03-31 18:05:00,47.1,45.7,29.72,SSW,195,0.0,0.0,95,0.00,,,0.20,54.00,VWS V14.01,2013-03-31 22:05:00,
2013-03-31 18:10:00,47.1,45.7,29.72,SSW,195,0.0,0.0,95,0.00,,,0.20,77.00,VWS V14.01,2013-03-31 22:10:00,
2013-03-31 18:15:00,47.1,45.7,29.73,SSW,198,0.0,0.0,95,0.00,,,0.20,125.00,VWS V14.01,2013-03-31 22:15:00,
2013-03-31 18:20:00,47.2,45.8,29.73,SSW,198,0.0,0.0,95,0.00,,,0.20,195.00,VWS V14.01,2013-03-31 22:20:00,
2013-03-31 18:25:00,47.4,46.3,29.73,SSW,198,0.0,0.0,96,0.00,,,0.20,163.00,VWS V14.01,2013-03-31 22:25:00,
2013-03-31 18:30:00,47.6,46.5,29.73,SSW,198,0.0,0.0,96,0.00,,,0.20,105.00,VWS V14.01,2013-03-31 22:30:00,
2013-03-31 18:35:00,47.7,46.3,29.73,SSW,198,0.0,0.0,95,0.00,,,0.20,83.00,VWS V14.01,2013-03-31 22:35:00,
2013-03-31 18:40:00,47.7,46.6,29.73,SSW,198,0.0,0.0,96,0.00,,,0.20,53.00,VWS V14.01,2013-03-31 22:40:00,
2013-03-31 18:46:00,47.7,46.3,29.73,SSW,198,0.0,0.0,95,0.00,,,0.20,32.00,VWS V14.01,2013-03-31 22:46:00,
2013-03-31 18:51:00,47.6,46.2,29.73,SSW,198,0.0,0.0,95,0.00,,,0.20,47.00,VWS V14.01,2013-03-31 22:51:00,
2013-03-31 18:56:00,47.6,46.2,29.73,SSW,198,0.0,0.0,95,0.00,,,0.20,28.00,VWS V14.01,2013-03-31 22:56:00,
2013-03-31 19:01:00,47.5,46.1,29.73,SSW,198,0.0,0.0,95,0.00,,,0.20,19.00,VWS V14.01,2013-03-31 23:01:00,
2013-03-31 19:06:00,47.5,46.1,29.73,SSW,198,0.0,0.0,95,0.00,,,0.20,18.00,VWS V14.01,2013-03-31 23:06:00,
2013-03-31 19:11:00,47.5,46.1,29.73,SSW,198,0.0,0.0,95,0.00,,,0.20,14.00,VWS V14.01,2013-03-31 23:11:00,
2013-03-31 19:17:00,47.4,46.0,29.73,SSW,198,0.0,0.0,95,0.00,,,0.20,11.00,VWS V14.01,2013-03-31 23:17:00,
2013-03-31 19:22:00,47.3,45.9,29.73,SSW,198,0.0,0.0,95,0.00,,,0.20,7.00,VWS V14.01,2013-03-31 23:22:00,
2013-03-31 19:27:00,47.2,45.8,29.73,SSW,200,0.0,0.0,95,0.00,,,0.20,0.00,VWS V14.01,2013-03-31 23:27:00,
2013-03-31 19:32:00,47.1,45.7,29.73,WSW,249,0.0,0.0,95,0.00,,,0.20,0.00,VWS V14.01,2013-03-31 23:32:00,
2013-03-31 19:37:00,47.1,45.7,29.73,WSW,249,0.0,0.0,95,0.00,,,0.20,0.00,VWS V14.01,2013-03-31 23:37:00,
2013-03-31 19:42:00,47.0,45.7,29.73,WSW,249,0.0,0.0,95,0.00,,,0.20,0.00,VWS V14.01,2013-03-31 23:42:00,
2013-03-31 19:47:00,46.9,45.5,29.73,WSW,250,0.0,0.0,95,0.00,,,0.20,0.00,VWS V14.01,2013-03-31 23:47:00,
2013-03-31 19:52:00,46.9,45.5,29.74,WSW,249,0.0,0.0,95,0.00,,,0.20,0.00,VWS V14.01,2013-03-31 23:52:00,
2013-03-31 19:58:00,46.9,45.5,29.74,WSW,250,0.0,0.0,95,0.00,,,0.20,0.00,VWS V14.01,2013-03-31 23:58:00,
2013-03-31 20:03:00,46.8,45.5,29.74,WSW,249,0.0,0.0,95,0.00,,,0.20,0.00,VWS V14.01,2013-04-01 00:03:00,
2013-03-31 20:08:00,46.7,45.3,29.74,WSW,249,0.0,0.0,95,0.00,,,0.20,0.00,VWS V14.01,2013-04-01 00:08:00,
2013-03-31 20:13:00,46.6,45.2,29.74,WSW,250,0.0,0.0,95,0.00,,,0.20,0.00,VWS V14.01,2013-04-01 00:13:00,
2013-03-31 20:18:00,46.6,45.2,29.74,WSW,249,0.0,0.0,95,0.00,,,0.20,0.00,VWS V14.01,2013-04-01 00:18:00,
2013-03-31 20:23:00,46.5,45.2,29.74,WSW,250,0.0,0.0,95,0.00,,,0.20,0.00,VWS V14.01,2013-04-01 00:23:00,
2013-03-31 20:28:00,46.5,45.2,29.74,WSW,250,0.0,0.0,95,0.00,,,0.20,0.00,VWS V14.01,2013-04-01 00:28:00,
2013-03-31 20:33:00,46.4,45.0,29.74,WSW,250,0.0,0.0,95,0.00,,,0.20,0.00,VWS V14.01,2013-04-01 00:33:00,
2013-03-31 20:38:00,46.3,45.0,29.74,WSW,250,0.0,0.0,95,0.00,,,0.20,0.00,VWS V14.01,2013-04-01 00:38:00,
2013-03-31 20:44:00,46.3,45.0,29.74,WSW,250,0.0,0.0,95,0.00,,,0.20,0.00,VWS V14.01,2013-04-01 00:44:00,
2013-03-31 20:49:00,46.2,44.8,29.75,WSW,250,0.0,0.0,95,0.00,,,0.20,0.00,VWS V14.01,2013-04-01 00:49:00,
2013-03-31 20:54:00,46.1,45.0,29.75,WSW,249,0.0,0.0,96,0.00,,,0.20,0.00,VWS V14.01,2013-04-01 00:54:00,
2013-03-31 20:59:00,46.1,45.0,29.75,WSW,249,0.0,0.0,96,0.00,,,0.20,0.00,VWS V14.01,2013-04-01 00:59:00,
2013-03-31 21:04:00,46.1,45.0,29.75,WSW,249,0.0,0.0,96,0.00,,,0.20,0.00,VWS V14.01,2013-04-01 01:04:00,
2013-03-31 21:09:00,46.1,45.0,29.76,WSW,250,0.0,0.0,96,0.00,,,0.20,0.00,VWS V14.01,2013-04-01 01:09:00,
2013-03-31 21:14:00,46.1,45.0,29.76,WSW,249,0.0,0.0,96,0.00,,,0.20,0.00,VWS V14.01,2013-04-01 01:14:00,
2013-03-31 21:19:00,46.1,45.0,29.76,WSW,250,0.0,0.0,96,0.00,,,0.20,0.00,VWS V14.01,2013-04-01 01:19:00,
2013-03-31 21:24:00,46.1,45.0,29.75,WSW,249,0.0,0.0,96,0.00,,,0.20,0.00,VWS V14.01,2013-04-01 01:24:00,
2013-03-31 21:29:00,46.0,44.9,29.75,WSW,249,0.0,0.0,96,0.00,,,0.20,0.00,VWS V14.01,2013-04-01 01:29:00,
2013-03-31 21:34:00,45.9,44.8,29.75,WSW,250,0.0,0.0,96,0.00,,,0.20,0.00,VWS V14.01,2013-04-01 01:34:00,
2013-03-31 21:40:00,45.7,44.6,29.76,WSW,249,0.0,0.0,96,0.00,,,0.20,0.00,VWS V14.01,2013-04-01 01:40:00,
2013-03-31 21:45:00,45.5,44.4,29.75,WSW,250,0.0,0.0,96,0.00,,,0.20,0.00,VWS V14.01,2013-04-01 01:45:00,
2013-03-31 21:50:00,45.3,44.2,29.76,WSW,249,0.0,0.0,96,0.00,,,0.20,0.00,VWS V14.01,2013-04-01 01:50:00,
2013-03-31 21:55:00,45.2,44.1,29.76,WSW,249,0.0,0.0,96,0.00,,,0.20,0.00,VWS V14.01,2013-04-01 01:55:00,
2013-03-31 22:00:00,45.1,44.0,29.76,WSW,250,0.0,0.0,96,0.00,,,0.20,0.00,VWS V14.01,2013-04-01 02:00:00,
2013-03-31 22:05:00,45.0,43.9,29.76,WSW,249,0.0,0.0,96,0.00,,,0.20,0.00,VWS V14.01,2013-04-01 02:05:00,
2013-03-31 22:10:00,45.0,43.9,29.76,WSW,249,0.0,0.0,96,0.00,,,0.20,0.00,VWS V14.01,2013-04-01 02:10:00,
2013-03-31 22:15:00,45.0,43.9,29.76,WSW,250,0.0,0.0,96,0.00,,,0.20,0.00,VWS V14.01,2013-04-01 02:15:00,
2013-03-31 22:20:00,44.9,43.8,29.76,WSW,249,0.0,0.0,96,0.00,,,0.20,0.00,VWS V14.01,2013-04-01 02:20:00,
2013-03-31 22:25:00,44.8,43.7,29.76,WSW,250,0.0,0.0,96,0.00,,,0.20,0.00,VWS V14.01,2013-04-01 02:25:00,
2013-03-31 22:30:00,44.6,43.5,29.76,WSW,250,0.0,0.0,96,0.00,,,0.20,0.00,VWS V14.01,2013-04-01 02:30:00,
2013-03-31 22:35:00,44.5,43.4,29.76,WSW,250,0.0,0.0,96,0.00,,,0.20,0.00,VWS V14.01,2013-04-01 02:35:00,
2013-03-31 22:41:00,44.3,43.2,29.76,WSW,250,0.0,0.0,96,0.00,,,0.20,0.00,VWS V14.01,2013-04-01 02:41:00,
2013-03-31 22:46:00,44.1,43.0,29.75,WSW,250,0.0,0.0,96,0.00,,,0.20,0.00,VWS V14.01,2013-04-01 02:46:00,
2013-03-31 22:51:00,44.0,42.9,29.75,WSW,250,0.0,0.0,96,0.00,,,0.20,0.00,VWS V14.01,2013-04-01 02:51:00,
2013-03-31 22:57:00,44.0,42.9,29.75,WSW,249,0.0,0.0,96,0.00,,,0.20,0.00,VWS V14.01,2013-04-01 02:57:00,
2013-03-31 23:02:00,44.0,42.9,29.75,WSW,250,0.0,0.0,96,0.00,,,0.20,0.00,VWS V14.01,2013-04-01 03:02:00,
2013-03-31 23:07:00,44.0,42.9,29.75,WSW,249,0.0,0.0,96,0.00,,,0.20,0.00,VWS V14.01,2013-04-01 03:07:00,
2013-03-31 23:12:00,43.8,42.7,29.75,WSW,249,0.0,0.0,96,0.00,,,0.20,0.00,VWS V14.01,2013-04-01 03:12:00,
2013-03-31 23:17:00,43.7,42.6,29.75,WSW,250,0.0,0.0,96,0.00,,,0.20,0.00,VWS V14.01,2013-04-01 03:17:00,
2013-03-31 23:22:00,43.4,42.3,29.75,WSW,250,0.0,0.0,96,0.00,,,0.20,0.00,VWS V14.01,2013-04-01 03:22:00,
2013-03-31 23:27:00,43.3,42.2,29.75,South,171,0.0,4.0,96,0.00,,,0.20,0.00,VWS V14.01,2013-04-01 03:27:00,
2013-03-31 23:32:00,43.5,42.7,29.75,South,181,0.0,0.0,97,0.00,,,0.20,0.00,VWS V14.01,2013-04-01 03:32:00,
2013-03-31 23:37:00,43.7,42.9,29.75,South,180,0.0,0.0,97,0.00,,,0.20,0.00,VWS V14.01,2013-04-01 03:37:00,
2013-03-31 23:42:00,43.8,43.0,29.74,South,181,0.0,0.0,97,0.00,,,0.20,0.00,VWS V14.01,2013-04-01 03:42:00,
2013-03-31 23:48:00,43.8,43.0,29.74,South,181,0.0,2.0,97,0.00,,,0.20,0.00,VWS V14.01,2013-04-01 03:48:00,
2013-03-31 23:53:00,44.0,43.2,29.74,South,190,2.0,2.0,97,0.00,,,0.20,0.00,VWS V14.01,2013-04-01 03:53:00,
2013-03-31 23:58:00,44.1,43.3,29.74,SSW,206,1.0,3.0,97,0.00,,,0.20,0.00,VWS V14.01,2013-04-01 03:58:00,